{"data":{"norad_id":62395,"intl_designator":"2024-247U","name":"BANDWAGON-2 OBJECT U","alt_names":[],"object_type":"PAYLOAD","status":"ACTIVE","operator":null,"country":"TBD","launch_date":"2024-12-21","launch_site_code":"AFWTR","launch_vehicle":null,"mission":null,"orbit_class":"UNKNOWN","rcs_meters":null,"size_class":null,"mass_kg":null,"dimensions":null,"purposes":[],"wikipedia_slug":null,"has_3d_model":false,"image_url":null,"decayed_at":null,"tle_current":{"epoch":"2026-05-25T00:59:33.060768Z","epoch_age_seconds":64632,"freshness":"FRESH","line1":"1 62395U 24247U   26145.04135487  .00028404  00000+0  56638-3 0  9992","line2":"2 62395  44.9964  26.4139 0006227 152.9669 207.1547 15.46399277 79817","mean_motion":15.46399277,"eccentricity":0.0006227,"inclination_deg":44.9964,"raan_deg":26.4139,"arg_perigee_deg":152.9669,"mean_anomaly_deg":207.1547,"bstar":0.00056638,"rev_number":7981,"period_min":93.119546899529,"perigee_km":423.03194747799,"apogee_km":431.50740095005,"semimajor_km":6805.406674214,"source":"CELESTRAK","updated_at":"2026-05-25T13:38:02.948943Z"}}}